User: anonymous   Login
Location: Unspecified
(0.0000°N, 0.0000°E)
Time: 01:01:44
(UTC+00:00)
Language:

PRISMA (TANGO) - Orbit

View from above orbital plane
View from above orbital plane
View from above satellite
View from above satellite

Ground track
Ground track

The orbit data is extracted from the following two-line orbital elements,

1 36827U 10028F   21023.49833211  .00000048  00000-0  27706-4 0  9994
2 36827  98.5411 210.0934 0043468  45.5281 314.9450 14.42489707418606
Epoch (UTC): 23 January 2021 11:57:35
Eccentricity: 0.0043468
inclination: 98.5411°
perigee height: 719 km
apogee height: 781 km
right ascension of ascending node: 210.0934°
argument of perigee: 45.5281°
revolutions per day: 14.42489707
mean anomaly at epoch: 314.9450°
orbit number at epoch: 41860

The dashed part of the orbit path shows where the satellite is in the earth's shadow,  

DLR